Location: Burland Observatory
(39.4088°N, 105.4217°W)
Time: 10:44:54
(UTC-07:00)

SR - Pass Details

Date: 15 December 2019
Orbit: 574 x 882 km, 66.7° (Epoch: 20 January)

Event Time Altitude Azimuth Distance (km) Brightness Sun altitude
Rises 17:32:30 0° 328° (NNW) 3,464 ? -10.1°
Reaches altitude 10° 17:35:04 10° 325° (NW) 2,502 ? -10.6°
Maximum altitude 17:40:47 63° 246° (WSW) 921 ? -11.6°
Drops below altitude 10° 17:46:07 10° 166° (SSE) 2,328 ? -12.6°
Sets 17:48:26 0° 163° (SSE) 3,205 ? -13.0°
